Regional Weather Roundup
Issued by NWS

Home | Current Version | Previous Version | Graphics & Text | Print | Product List | Glossary On
Versions: 1 2 3 4 5 6 7 8 9 10 11 12 13 14 15 16 17 18 19 20 21 22 23 24 25 26 27 28 29 30 31 32 33 34 35 36 37 38 39 40 41 42 43 44 45 46 47 48 49 50
000
ASUS43 KFSD 222010
RWRSD

WEATHER ROUNDUP FOR SOUTH DAKOTA
NATIONAL WEATHER SERVICE SIOUX FALLS SD
300 PM CDT FRI SEP 22 2017

NOTE: "FAIR" INDICATES FEW OR NO CLOUDS BELOW 12,000 FEET WITH NO
SIGNIFICANT WEATHER AND/OR OBSTRUCTIONS TO VISIBILITY.


SDZ001>005-009-010-012>017-222100-
NORTHWEST AND NORTH CENTRAL SOUTH DAKOTA

CITY           SKY/WX    TMP DP  RH WIND       PRES   REMARKS
BUFFALO          N/A     53  34  48 N20       29.85S
FAITH            N/A     55  42  61 NW23      29.82R
MOBRIDGE       CLOUDY    62  53  72 N20G28    29.69R
$$

SDZ012>016-024>037-041>051-057-063-072>074-222100-
SOUTHWEST AND SOUTH CENTRAL SOUTH DAKOTA

CITY           SKY/WX    TMP DP  RH WIND       PRES   REMARKS
RAPID CTY ARPT SUNNY     61  39  44 N31G38    29.85R
PIERRE         CLOUDY    65  53  65 NW18      29.73R
CUSTER         SUNNY     64  43  46 SW8       29.89R
ELLSWORTH AFB  SUNNY     60  39  46 N26G36    29.85R
PHILIP         CLOUDY    67  46  47 NW20G28   29.79R
PINE RIDGE     SUNNY     68  44  42 N10       29.83F
SPEARFISH      CLOUDY    52  37  58 NW13G22   29.93R
WINNER         FAIR      73  53  49 W16G23    29.75S
$$

SDZ004>011-016>023-039-040-222100-
NORTHEAST SOUTH DAKOTA

CITY           SKY/WX    TMP DP  RH WIND       PRES   REMARKS
ABERDEEN       MOSUNNY   89  63  41 SW17G30   29.61S
WATERTOWN      MOSUNNY   87  70  56 S21G28    29.67F
BROOKINGS      SUNNY     88  70  55 S24G35    29.70F
SISSETON         N/A     89  70  53 S15G23    29.63F
$$

SDZ017-020-022-023-036>040-048>070-222100-
SOUTHEAST SOUTH DAKOTA

CITY           SKY/WX    TMP DP  RH WIND       PRES   REMARKS
SIOUX FALLS    MOSUNNY   90  72  55 S24G35    29.71F HX  97
HURON          SUNNY     86  62  44 SW14G23   29.65S
CHAMBERLAIN    SUNNY     76  56  51 W15G23    29.73S
MITCHELL       SUNNY     86  62  44 W17       29.67R
YANKTON        SUNNY     95  69  42 S23G30    29.68F HX 100
$$

ABBREVIATIONS USED IN REMARKS
   TC - TEMPERATURE IN CELSIUS
  WCI - WIND CHILL INDEX
   HX - HEAT INDEX
  VSB - VISIBILITY




USA.gov is the U.S. government's official web portal to all federal, state and local government web resources and services.